Weather in Skyros

Greece     38°51′51″N   24°33′12″E
temp.,
°C
wind,
m/s
gust,
m/s
humid.,
%
clouds,
%
prec.,
mm/h
press.,
hPa
HPBL,
m
8 august, mon
mon800:00+26nne914690 0.0 1008455
03:00+25nne1117690 0.0 1008726
06:00+25nne1217710 0.0 1008762
09:00+25nne1216720 0.0 1010867
12:00+26nne1114710 0.0 1011739
15:00+27n913610 0.0 1009393
18:00+28n811620 0.0 1009255
21:00+27nne915600 0.0 1009309
9 august, tue
tue900:00+26nne1016630 0.0 1010497
03:00+25n813690 0.0 1010654
06:00+25nne1016700 0.0 1010835
09:00+25nne1217660 0.0 1011768
12:00+27n1014580 0.0 1011554
15:00+28n912520 0.0 1010322
18:00+27nnw79580 0.0 1009212
21:00+26nw710680 0.0 1009143
10 august, wed
wed1000:00+26n68680 0.0 101093
03:00+25n69690 0.0 1009141
06:00+25n611660 0.0 1009212
09:00+26nne610560 0.0 1010273
12:00+27n811540 0.0 1010312
15:00+27n710530 0.0 1010280
18:00+27nw89630 0.0 1009241
21:00+26nw710680 0.0 1009149
11 august, thu
thu1100:00+26n69690 0.0 1010118
03:00+26nne713600 0.0 1010276
06:00+25nne814670 0.0 1010429
09:00+25nne813694 0.0 1011469
12:00+26n68663 0.0 1012311
15:00+26n68631 0.0 1012328
18:00+26nnw78660 0.0 1011242
21:00+25nnw79740 0.0 1011213
12 august, fri
fri1200:00+25nnw911772 0.0 1012352
03:00+25n711750 0.0 1011280
06:00+25n610730 0.0 1011302
09:00+26nnw710720 0.0 1012364
12:00+26n811630 0.0 1012424
15:00+26nnw89690 0.0 1011377
18:00+26nw89690 0.0 1010264
21:00+26wnw1013750 0.0 1011313